{"data":{"norad_id":67686,"epoch":"2026-09-19T01:08:46.928832Z","epoch_age_seconds":143584,"freshness":"FRESH","line1":"1 67686U 98067YC  26262.04776538  .00203393  00000+0  80180-3 0  9990","line2":"2 67686  51.6181 170.6922 0008124 164.7475 195.3775 15.85686331 35082","mean_motion":15.85686331,"eccentricity":0.0008124,"inclination_deg":51.6181,"raan_deg":170.6922,"arg_perigee_deg":164.7475,"mean_anomaly_deg":195.3775,"bstar":0.0008018,"rev_number":3508,"period_min":90.812411751817,"perigee_km":308.95588131639,"apogee_km":319.82990388589,"semimajor_km":6692.5298926011,"source":"CELESTRAK","updated_at":"2026-09-20T09:00:28.695332Z"}}